EW2323 Weather Reports


time (UTC)temp
C
wind
direction
speed
KPH
gust
KPH
rain 1hr
cm
rain 24hr
cm
rain mn
cm
humidity
%
barometer
mb
20260504041601 11 158 0.0 0.0 0.00 0.64 0.00 74 1013.0
20260504040105 11 158 0.0 3.2 0.00 0.64 0.00 74 1013.0
20260504034608 10 163 0.0 0.0 0.00 0.64 0.64 74 1013.2
20260504033127 10 164 0.0 0.0 0.00 0.64 0.64 74 1013.4
20260504031557 11 164 0.0 0.0 0.00 0.64 0.64 73 1013.6
20260504030054 11 164 0.0 0.0 0.00 0.64 0.64 73 1013.8
20260504024555 11 164 0.0 0.0 0.00 0.64 0.64 72 1013.9
20260504023102 11 164 0.0 0.0 0.00 0.64 0.64 71 1013.9
20260504021553 11 164 0.0 0.0 0.00 0.64 0.64 70 1014.1
20260504020058 12 164 0.0 0.0 0.00 0.64 0.64 68 1014.0
20260504014552 12 164 0.0 0.0 0.03 0.64 0.64 67 1013.9
20260504013104 13 164 0.0 0.0 0.10 0.64 0.64 66 1014.0
20260504011551 13 164 0.0 0.0 0.10 0.64 0.64 62 1014.0
20260504010058 14 164 0.0 0.0 0.10 0.64 0.64 60 1013.5
20260504004605 15 164 0.0 0.0 0.08 0.61 0.61 58 1013.5
20260504003048 16 162 0.0 0.0 0.00 0.53 0.53 53 1013.4
20260504001553 16 236 0.0 3.2 0.00 0.53 0.53 51 1013.2
20260504000047 16 208 0.0 4.8 0.00 0.53 0.53 50 1013.1
20260503234548 16 169 0.0 17.7 0.00 0.53 0.53 48 1013.2
20260503233049 17 158 0.0 6.4 0.00 0.53 0.53 49 1013.1
20260503231545 17 246 0.0 11.3 0.00 0.53 0.53 48 1013.3
20260503230044 17 230 0.0 9.7 0.00 0.53 0.53 48 1013.6
20260503224540 17 242 0.0 6.4 0.00 0.53 0.53 48 1013.9
20260503223038 17 213 0.0 9.7 0.00 0.53 0.53 46 1014.1
20260503221543 17 122 0.0 6.4 0.00 0.53 0.53 46 1014.4
20260503220037 17 235 0.0 12.9 0.20 0.53 0.53 45 1014.3
20260503214535 17 340 1.6 11.3 0.36 0.53 0.53 44 1015.0
20260503213046 17 282 1.6 17.7 0.46 0.53 0.53 44 1015.2
20260503211533 17 140 0.0 11.3 0.53 0.53 0.53 44 1015.3
20260503210032 17 158 1.6 16.1 0.33 0.33 0.33 44 1014.9
20260503204544 17 243 3.2 25.7 0.18 0.18 0.18 43 1015.6
20260503203027 17 299 0.0 4.8 0.08 0.08 0.08 45 1015.8
20260503201526 18 221 0.0 11.3 0.00 0.00 0.00 40 1016.1
20260503200024 18 292 1.6 14.5 0.00 0.00 0.00 38 1016.3
20260503194524 18 237 0.0 11.3 0.00 0.00 0.00 41 1016.8
20260503193027 18 239 0.0 11.3 0.00 0.00 0.00 41 1017.4
20260503191516 18 126 4.8 14.5 0.00 0.00 0.00 38 1017.5
20260503190013 18 198 1.6 11.3 0.00 0.00 0.00 39 1017.7
20260503184529 18 104 0.0 8.0 0.00 0.00 0.00 38 1017.9
20260503183008 18 147 0.0 8.0 0.00 0.00 0.00 39 1018.3
20260503181507 17 309 0.0 6.4 0.00 0.00 0.00 42 1018.6
20260503180017 17 270 1.6 6.4 0.00 0.00 0.00 39 1018.7
20260503174502 17 274 0.0 16.1 0.00 0.00 0.00 41 1018.9
20260503173119 17 133 1.6 6.4 0.00 0.00 0.00 39 1019.1
20260503171557 16 163 1.6 19.3 0.00 0.00 0.00 42 1019.4
20260503081538 -17 0.0 0.0 0.00 0.00 0.00 1019.8
20260503071521 -17 0.0 0.0 0.00 0.00 0.00 1019.5
20260503054555 -17 0.0 0.0 0.00 0.00 0.00 1019.8
20260503053052 5 351 0.0 0.0 0.00 0.00 0.00 79 1019.8
20260503051552 6 351 0.0 0.0 0.00 0.00 0.00 75 1019.7
20260503050046 6 351 0.0 0.0 0.00 0.00 0.00 73 1019.8
20260503044544 6 351 0.0 0.0 0.00 0.00 0.00 71 1019.8
20260503043042 7 351 0.0 0.0 0.00 0.00 0.00 69 1019.8